Location: Bear Branch Nature Center
(39.6445°N, 76.9901°W)
Time: 09:55:07
(UTC-04:00)

ISS - Visible Passes

Search period start: 23 May 2019 00:00
Search period end: 02 June 2019 00:00
Orbit: 407 x 410 km, 51.6° (Epoch: 23 May)

Date Brightness Start Highest point End Pass type
(mag) Time Alt. Az. Time Alt. Az. Time Alt. Az.
23 May -0.6 00:33:36 10° NNW 00:35:20 13° NNE 00:35:25 13° NNE visible
23 May -0.6 22:04:48 10° NW 22:06:23 13° NNW 22:07:56 10° NNE visible
23 May -0.5 23:42:56 10° NNW 23:44:06 11° N 23:45:17 10° NNE visible
24 May -0.4 01:18:36 10° NW 01:18:38 10° NW 01:18:38 10° NW visible
24 May -0.8 21:13:02 10° WNW 21:15:10 16° NNW 21:17:16 10° NNE visible
24 May -0.5 22:52:07 10° N 22:52:50 10° N 22:53:33 10° NNE visible
25 May -0.8 00:27:53 10° NNW 00:29:13 17° N 00:29:13 17° N visible
25 May -0.5 22:00:46 10° NNW 22:01:33 11° N 22:02:18 10° N visible
25 May -1.0 23:37:12 10° NNW 23:39:14 15° NNE 23:39:50 14° NNE visible
26 May -0.7 21:08:58 10° NNW 21:10:15 12° N 21:11:30 10° NNE visible
26 May -0.8 22:46:31 10° NNW 22:47:58 12° NNE 22:49:26 10° NE visible
27 May -0.9 00:22:12 10° NW 00:23:11 17° NNW 00:23:11 17° NNW visible
27 May -0.7 21:55:46 10° N 21:56:40 11° N 21:57:35 10° NNE visible
27 May -1.6 23:31:26 10° NNW 23:33:50 23° NNE 23:33:50 23° NNE visible
28 May -0.6 21:04:41 10° NNW 21:05:20 10° N 21:06:00 10° N visible
28 May -1.3 22:40:41 10° NNW 22:42:59 17° NNE 22:44:31 13° NE visible
29 May -0.8 00:16:38 10° NW 00:17:14 14° NW 00:17:14 14° NW visible
29 May -1.0 21:49:58 10° NNW 21:51:43 13° NNE 21:53:28 10° NE visible
29 May -2.1 23:25:43 10° NW 23:27:56 34° NNW 23:27:56 34° NNW visible
30 May -0.9 20:59:14 10° NNW 21:00:24 11° N 21:01:34 10° NNE visible
30 May -2.2 22:34:53 10° NW 22:37:49 29° NNE 22:38:39 25° NE visible
31 May -1.6 21:44:05 10° NNW 21:46:37 20° NNE 21:49:09 10° ENE visible
31 May -2.2 23:20:10 10° WNW 23:22:06 32° WNW 23:22:06 32° WNW visible
01 Jun -3.6 22:29:09 10° NW 22:32:26 63° NE 22:32:53 55° E visible
